| time (UTC) | temp F | wind direction | speed knots | gust knots | rain 1hr in | rain 24hr in | rain mn in | humidity % | barometer mb |
| 20260508082600 | 68 | 133 | 0.9 | 3.5 | 0.00 | 0.00 | 0.00 | 56 | 1015.2 |
| 20260508082059 | 68 | 78 | 0.9 | 4.3 | 0.00 | 0.00 | 0.00 | 54 | 1015.2 |
| 20260508081900 | 68 | 108 | 0.9 | 2.6 | 0.00 | 0.00 | 0.00 | 55 | 1015.0 |
| 20260508081856 | 68 | 144 | 0.9 | 4.3 | 0.00 | 0.00 | 0.00 | 58 | 1015.2 |
| 20260508080639 | 68 | 102 | 0.9 | 1.7 | 0.00 | 0.00 | 0.00 | 55 | 1015.0 |
| 20260508080628 | 68 | 103 | 0.9 | 2.6 | 0.00 | 0.00 | 0.00 | 58 | 1015.0 |
| 20260508075555 | 67 | 102 | 0.9 | 3.5 | 0.00 | 0.00 | 0.00 | 58 | 1014.9 |
| 20260508075057 | 67 | 101 | 0.9 | 3.5 | 0.00 | 0.00 | 0.00 | 58 | 1014.9 |
| 20260508074556 | 67 | 118 | 0.9 | 2.6 | 0.00 | 0.00 | 0.00 | 60 | 1014.9 |
| 20260508074051 | 67 | 118 | 0.9 | 2.6 | 0.00 | 0.00 | 0.00 | 58 | 1014.8 |
| 20260508073552 | 67 | 136 | 0.9 | 1.7 | 0.00 | 0.00 | 0.00 | 58 | 1014.8 |
| 20260508073428 | 66 | 136 | 0.9 | 1.7 | 0.00 | 0.00 | 0.00 | 59 | 1014.8 |
| 20260508073126 | 66 | 136 | 0.9 | 1.7 | 0.00 | 0.00 | 0.00 | 60 | 1014.8 |
| 20260508072051 | 66 | 136 | 0.9 | 2.6 | 0.00 | 0.02 | 0.00 | 60 | 1014.8 |
| 20260508071552 | 66 | 136 | 0.9 | 2.6 | 0.00 | 0.03 | 0.00 | 62 | 1014.8 |
| 20260508071053 | 66 | 73 | 0.9 | 2.6 | 0.00 | 0.03 | 0.00 | 61 | 1014.8 |
| 20260508070551 | 66 | 69 | 0.9 | 2.6 | 0.00 | 0.03 | 0.00 | 59 | 1014.8 |
| 20260508070051 | 66 | 123 | 0.9 | 2.6 | 0.00 | 0.03 | 0.00 | 59 | 1014.8 |
| 20260508065549 | 66 | 125 | 0.9 | 1.7 | 0.00 | 0.03 | 0.00 | 59 | 1014.8 |
| 20260508065050 | 65 | 99 | 0.0 | 1.7 | 0.00 | 0.03 | 0.00 | 59 | 1014.8 |
| 20260508064825 | 65 | 99 | 0.9 | 2.6 | 0.00 | 0.03 | 0.00 | 59 | 1014.7 |
| 20260508064043 | 65 | 99 | 0.9 | 2.6 | 0.00 | 0.03 | 0.00 | 60 | 1014.7 |
| 20260508063546 | 64 | 100 | 0.9 | 2.6 | 0.00 | 0.03 | 0.00 | 60 | 1014.7 |
| 20260508063042 | 64 | 100 | 0.9 | 2.6 | 0.00 | 0.03 | 0.00 | 61 | 1014.7 |
| 20260508062920 | 64 | 113 | 0.9 | 3.5 | 0.00 | 0.03 | 0.00 | 60 | 1014.7 |
| 20260508062916 | 64 | 99 | 0.9 | 3.5 | 0.00 | 0.03 | 0.00 | 60 | 1014.7 |
| 20260508061546 | 64 | 359 | 0.9 | 2.6 | 0.00 | 0.03 | 0.00 | 61 | 1014.6 |
| 20260508061040 | 64 | 83 | 0.9 | 2.6 | 0.00 | 0.03 | 0.00 | 63 | 1014.6 |
| 20260508060541 | 64 | 231 | 0.9 | 4.3 | 0.00 | 0.03 | 0.00 | 61 | 1014.5 |
| 20260508060039 | 64 | 23 | 0.9 | 4.3 | 0.00 | 0.03 | 0.00 | 60 | 1014.5 |
| 20260508055536 | 64 | 115 | 0.9 | 2.6 | 0.00 | 0.03 | 0.00 | 58 | 1014.5 |
| 20260508055033 | 63 | 120 | 0.9 | 2.6 | 0.00 | 0.03 | 0.00 | 57 | 1014.5 |
| 20260508054535 | 62 | 14 | 0.9 | 2.6 | 0.00 | 0.03 | 0.00 | 59 | 1014.5 |
| 20260508054034 | 61 | 118 | 0.9 | 5.2 | 0.00 | 0.03 | 0.00 | 62 | 1014.5 |
| 20260508053535 | 61 | 118 | 1.7 | 5.2 | 0.00 | 0.03 | 0.00 | 59 | 1014.5 |
| 20260508053034 | 61 | 336 | 0.9 | 3.5 | 0.00 | 0.03 | 0.00 | 63 | 1014.4 |
| 20260508052533 | 61 | 298 | 0.9 | 3.5 | 0.00 | 0.03 | 0.00 | 64 | 1014.4 |
| 20260508052032 | 60 | 359 | 0.9 | 3.5 | 0.00 | 0.03 | 0.00 | 61 | 1014.3 |
| 20260508051530 | 60 | 4 | 0.9 | 3.5 | 0.00 | 0.03 | 0.00 | 63 | 1014.3 |
| 20260508051318 | 60 | 25 | 1.7 | 4.3 | 0.00 | 0.03 | 0.00 | 63 | 1014.3 |
| 20260508050529 | 60 | 309 | 1.7 | 4.3 | 0.00 | 0.03 | 0.00 | 63 | 1014.3 |
| 20260508050030 | 60 | 314 | 1.7 | 4.3 | 0.00 | 0.03 | 0.00 | 63 | 1014.1 |
| 20260508045534 | 60 | 347 | 1.7 | 7.0 | 0.00 | 0.05 | 0.00 | 62 | 1014.1 |
| 20260508045327 | 60 | 18 | 1.7 | 7.0 | 0.00 | 0.05 | 0.00 | 62 | 1014.0 |
| 20260508044620 | 59 | 272 | 1.7 | 6.1 | 0.00 | 0.05 | 0.00 | 63 | 1013.9 |
| 20260508044600 | 59 | 100 | 1.7 | 6.1 | 0.00 | 0.05 | 0.00 | 62 | 1013.9 |
| 20260508043525 | 59 | 318 | 1.7 | 4.3 | 0.00 | 0.05 | 0.00 | 64 | 1013.9 |
| 20260508043026 | 59 | 33 | 1.7 | 3.5 | 0.00 | 0.05 | 0.00 | 65 | 1013.8 |
| 20260508042525 | 58 | 288 | 1.7 | 3.5 | 0.00 | 0.05 | 0.00 | 65 | 1013.8 |
| 20260508042031 | 58 | 354 | 1.7 | 3.5 | 0.00 | 0.05 | 0.00 | 66 | 1013.7 |
| 20260508041526 | 58 | 337 | 1.7 | 4.3 | 0.00 | 0.05 | 0.00 | 66 | 1013.7 |
| 20260508041332 | 58 | 354 | 1.7 | 4.3 | 0.00 | 0.05 | 0.00 | 65 | 1013.7 |
| 20260508040525 | 58 | 14 | 1.7 | 3.5 | 0.00 | 0.05 | 0.00 | 66 | 1013.6 |
| 20260508040024 | 58 | 301 | 1.7 | 3.5 | 0.00 | 0.05 | 0.00 | 66 | 1013.7 |
| 20260508035522 | 58 | 342 | 1.7 | 3.5 | 0.00 | 0.05 | 0.00 | 66 | 1013.6 |
| 20260508035108 | 58 | 332 | 1.7 | 3.5 | 0.00 | 0.05 | 0.00 | 67 | 1013.6 |
| 20260508035047 | 58 | 315 | 0.9 | 2.6 | 0.00 | 0.05 | 0.00 | 67 | 1013.6 |
| 20260508034011 | 58 | 30 | 1.7 | 3.5 | 0.00 | 0.05 | 0.00 | 67 | 1013.6 |
| 20260508033512 | 58 | 339 | 1.7 | 3.5 | 0.00 | 0.05 | 0.00 | 67 | 1013.6 |
| 20260508033014 | 58 | 349 | 1.7 | 3.5 | 0.00 | 0.05 | 0.00 | 67 | 1013.6 |
| 20260508032519 | 58 | 326 | 1.7 | 3.5 | 0.00 | 0.05 | 0.00 | 67 | 1013.6 |
| 20260508032012 | 58 | 288 | 1.7 | 3.5 | 0.00 | 0.05 | 0.00 | 66 | 1013.5 |
| 20260508031510 | 58 | 332 | 0.9 | 3.5 | 0.00 | 0.05 | 0.00 | 67 | 1013.5 |
| 20260508031010 | 58 | 8 | 0.9 | 2.6 | 0.00 | 0.05 | 0.00 | 67 | 1013.6 |
| 20260508030509 | 58 | 318 | 0.9 | 2.6 | 0.00 | 0.05 | 0.00 | 67 | 1013.6 |
| 20260508030007 | 58 | 318 | 1.7 | 2.6 | 0.00 | 0.05 | 0.00 | 66 | 1013.7 |
| 20260508025508 | 58 | 318 | 1.7 | 2.6 | 0.00 | 0.05 | 0.00 | 66 | 1013.7 |
| 20260508025006 | 58 | 291 | 1.7 | 2.6 | 0.00 | 0.05 | 0.00 | 66 | 1013.7 |
| 20260508024749 | 58 | 16 | 0.9 | 3.5 | 0.00 | 0.05 | 0.00 | 66 | 1013.7 |
| 20260508024008 | 58 | 308 | 1.7 | 3.5 | 0.00 | 0.05 | 0.00 | 65 | 1013.7 |
| 20260508023502 | 58 | 291 | 1.7 | 2.6 | 0.00 | 0.05 | 0.00 | 66 | 1013.7 |
| 20260508022954 | 58 | 340 | 1.7 | 3.5 | 0.00 | 0.05 | 0.00 | 66 | 1013.7 |
| 20260508022456 | 58 | 19 | 1.7 | 5.2 | 0.00 | 0.05 | 0.00 | 65 | 1013.8 |
| 20260508021950 | 58 | 284 | 1.7 | 5.2 | 0.00 | 0.05 | 0.00 | 66 | 1013.8 |
| 20260508021450 | 58 | 354 | 1.7 | 4.3 | 0.00 | 0.05 | 0.00 | 67 | 1013.9 |
| 20260508020947 | 58 | 295 | 1.7 | 4.3 | 0.00 | 0.05 | 0.00 | 66 | 1013.9 |
| 20260508020449 | 58 | 276 | 1.7 | 3.5 | 0.00 | 0.05 | 0.00 | 67 | 1014.0 |
| 20260508020229 | 58 | 18 | 1.7 | 3.5 | 0.00 | 0.05 | 0.00 | 66 | 1014.0 |
| 20260508015445 | 58 | 296 | 1.7 | 3.5 | 0.00 | 0.05 | 0.00 | 66 | 1014.0 |
| 20260508014942 | 58 | 326 | 1.7 | 3.5 | 0.00 | 0.05 | 0.00 | 67 | 1014.0 |
| 20260508014441 | 58 | 354 | 1.7 | 3.5 | 0.00 | 0.05 | 0.00 | 66 | 1014.0 |
| 20260508013939 | 58 | 286 | 1.7 | 2.6 | 0.00 | 0.05 | 0.00 | 66 | 1014.1 |
| 20260508013723 | 58 | 301 | 1.7 | 3.5 | 0.00 | 0.05 | 0.00 | 66 | 1014.1 |
| 20260508012936 | 58 | 289 | 1.7 | 3.5 | 0.00 | 0.05 | 0.00 | 65 | 1014.1 |
| 20260508012438 | 58 | 310 | 1.7 | 5.2 | 0.00 | 0.05 | 0.00 | 65 | 1014.1 |
| 20260508011935 | 58 | 248 | 1.7 | 5.2 | 0.00 | 0.05 | 0.00 | 65 | 1014.1 |
| 20260508011435 | 58 | 320 | 1.7 | 5.2 | 0.00 | 0.05 | 0.00 | 66 | 1014.3 |
| 20260508010936 | 57 | 298 | 1.7 | 3.5 | 0.00 | 0.05 | 0.00 | 66 | 1014.3 |
| 20260508010435 | 57 | 316 | 1.7 | 3.5 | 0.00 | 0.05 | 0.00 | 66 | 1014.3 |
| 20260508005943 | 57 | 354 | 1.7 | 3.5 | 0.00 | 0.05 | 0.00 | 67 | 1014.3 |
| 20260508005436 | 57 | 332 | 1.7 | 3.5 | 0.00 | 0.05 | 0.00 | 67 | 1014.3 |
| 20260508004936 | 57 | 335 | 1.7 | 3.5 | 0.00 | 0.05 | 0.00 | 66 | 1014.3 |
| 20260508004434 | 57 | 310 | 1.7 | 4.3 | 0.00 | 0.05 | 0.00 | 66 | 1014.4 |
| 20260508003933 | 57 | 45 | 1.7 | 4.3 | 0.00 | 0.05 | 0.00 | 66 | 1014.4 |
| 20260508003508 | 56 | 18 | 1.7 | 3.5 | 0.00 | 0.05 | 0.00 | 68 | 1014.5 |
| 20260508003453 | 56 | 4 | 1.7 | 3.5 | 0.00 | 0.05 | 0.00 | 67 | 1014.4 |
| 20260508002432 | 55 | 326 | 1.7 | 3.5 | 0.00 | 0.05 | 0.00 | 68 | 1014.5 |
| 20260508001934 | 55 | 325 | 0.9 | 2.6 | 0.00 | 0.05 | 0.00 | 69 | 1014.6 |
| 20260508001432 | 55 | 325 | 0.9 | 2.6 | 0.00 | 0.05 | 0.00 | 69 | 1014.6 |
| 20260508000934 | 55 | 325 | 1.7 | 3.5 | 0.00 | 0.05 | 0.00 | 68 | 1014.7 |
| 20260508000434 | 55 | 325 | 1.7 | 3.5 | 0.00 | 0.05 | 0.00 | 69 | 1014.7 |
| 20260507235932 | 55 | 320 | 1.7 | 2.6 | 0.00 | 0.05 | 0.00 | 68 | 1014.7 |
| 20260507235433 | 55 | 319 | 1.7 | 3.5 | 0.00 | 0.05 | 0.00 | 69 | 1014.9 |
| 20260507234936 | 55 | 319 | 1.7 | 3.5 | 0.00 | 0.05 | 0.00 | 69 | 1014.9 |
| 20260507234439 | 55 | 319 | 1.7 | 2.6 | 0.00 | 0.05 | 0.00 | 69 | 1014.9 |
| 20260507233935 | 55 | 307 | 1.7 | 2.6 | 0.00 | 0.05 | 0.00 | 70 | 1014.9 |
| 20260507233433 | 55 | 307 | 1.7 | 3.5 | 0.00 | 0.05 | 0.00 | 70 | 1015.0 |
| 20260507232934 | 55 | 340 | 1.7 | 3.5 | 0.00 | 0.05 | 0.00 | 70 | 1015.1 |
| 20260507232431 | 55 | 331 | 1.7 | 3.5 | 0.00 | 0.05 | 0.00 | 70 | 1015.2 |
| 20260507231933 | 55 | 326 | 1.7 | 2.6 | 0.00 | 0.05 | 0.00 | 71 | 1015.2 |
| 20260507231727 | 55 | 324 | 1.7 | 2.6 | 0.00 | 0.05 | 0.00 | 71 | 1015.2 |
| 20260507230932 | 54 | 345 | 1.7 | 2.6 | 0.00 | 0.05 | 0.00 | 72 | 1015.3 |
| 20260507230544 | 54 | 345 | 1.7 | 2.6 | 0.00 | 0.05 | 0.00 | 72 | 1015.4 |
| 20260507230535 | 54 | 344 | 1.7 | 2.6 | 0.00 | 0.05 | 0.00 | 72 | 1015.3 |
| 20260507230523 | 54 | 345 | 1.7 | 1.7 | 0.00 | 0.05 | 0.00 | 72 | 1015.4 |
| 20260507224933 | 54 | 344 | 1.7 | 1.7 | 0.00 | 0.05 | 0.00 | 72 | 1015.4 |
| 20260507224433 | 54 | 344 | 0.9 | 1.7 | 0.00 | 0.05 | 0.00 | 72 | 1015.4 |
| 20260507223935 | 54 | 344 | 0.9 | 1.7 | 0.00 | 0.05 | 0.00 | 72 | 1015.4 |
| 20260507223717 | 54 | 344 | 1.7 | 2.6 | 0.00 | 0.05 | 0.00 | 73 | 1015.4 |
| 20260507222937 | 54 | 344 | 1.7 | 2.6 | 0.00 | 0.05 | 0.00 | 74 | 1015.4 |
| 20260507222435 | 54 | 344 | 1.7 | 2.6 | 0.00 | 0.05 | 0.00 | 74 | 1015.4 |
| 20260507221937 | 54 | 344 | 0.9 | 2.6 | 0.00 | 0.05 | 0.00 | 75 | 1015.3 |
| 20260507221435 | 54 | 344 | 0.9 | 1.7 | 0.00 | 0.05 | 0.00 | 74 | 1015.4 |
| 20260507220933 | 54 | 344 | 0.9 | 1.7 | 0.00 | 0.05 | 0.00 | 73 | 1015.4 |
| 20260507220436 | 54 | 344 | 1.7 | 2.6 | 0.00 | 0.05 | 0.00 | 73 | 1015.4 |
| 20260507215932 | 54 | 344 | 1.7 | 2.6 | 0.00 | 0.05 | 0.05 | 74 | 1015.3 |
| 20260507215432 | 54 | 344 | 1.7 | 2.6 | 0.00 | 0.05 | 0.05 | 75 | 1015.3 |
| 20260507214932 | 54 | 344 | 0.9 | 1.7 | 0.00 | 0.05 | 0.05 | 75 | 1015.3 |
| 20260507214433 | 54 | 344 | 0.9 | 1.7 | 0.00 | 0.05 | 0.05 | 75 | 1015.3 |
| 20260507213934 | 54 | 344 | 1.7 | 1.7 | 0.00 | 0.05 | 0.05 | 75 | 1015.2 |
| 20260507213434 | 54 | 344 | 1.7 | 1.7 | 0.00 | 0.05 | 0.05 | 76 | 1015.2 |
| 20260507212932 | 54 | 344 | 0.9 | 1.7 | 0.00 | 0.05 | 0.05 | 76 | 1015.2 |
| 20260507212726 | 54 | 344 | 0.9 | 1.7 | 0.00 | 0.05 | 0.05 | 77 | 1015.2 |
| 20260507211934 | 54 | 344 | 0.9 | 1.7 | 0.00 | 0.05 | 0.05 | 77 | 1015.2 |
| 20260507211432 | 54 | 344 | 0.9 | 1.7 | 0.00 | 0.05 | 0.05 | 77 | 1015.2 |
| 20260507210933 | 54 | 344 | 0.9 | 1.7 | 0.00 | 0.05 | 0.05 | 77 | 1015.3 |
| 20260507210747 | 54 | 344 | 0.9 | 1.7 | 0.00 | 0.05 | 0.05 | 78 | 1015.2 |
| 20260507210743 | 54 | 344 | 0.9 | 1.7 | 0.00 | 0.05 | 0.05 | 78 | 1015.2 |
| 20260507205433 | 54 | 344 | 1.7 | 2.6 | 0.00 | 0.05 | 0.05 | 79 | 1015.3 |
| 20260507204935 | 54 | 344 | 1.7 | 2.6 | 0.00 | 0.05 | 0.05 | 79 | 1015.3 |
| 20260507204437 | 54 | 354 | 0.9 | 1.7 | 0.00 | 0.05 | 0.05 | 79 | 1015.3 |
| 20260507204220 | 54 | 354 | 0.9 | 2.6 | 0.00 | 0.05 | 0.05 | 79 | 1015.3 |
| 20260507203433 | 54 | 354 | 0.9 | 2.6 | 0.00 | 0.05 | 0.05 | 79 | 1015.3 |
| 20260507202932 | 54 | 354 | 0.9 | 1.7 | 0.00 | 0.05 | 0.05 | 80 | 1015.3 |
| 20260507202432 | 54 | 354 | 1.7 | 3.5 | 0.00 | 0.05 | 0.05 | 80 | 1015.3 |
| 20260507201933 | 54 | 337 | 1.7 | 3.5 | 0.00 | 0.05 | 0.05 | 80 | 1015.2 |
| 20260507201432 | 54 | 347 | 0.9 | 1.7 | 0.00 | 0.05 | 0.05 | 81 | 1015.2 |
| 20260507200934 | 54 | 347 | 0.9 | 2.6 | 0.00 | 0.05 | 0.05 | 81 | 1015.1 |
| 20260507200433 | 54 | 347 | 0.9 | 2.6 | 0.00 | 0.05 | 0.05 | 81 | 1014.9 |
| 20260507195933 | 54 | 347 | 0.9 | 1.7 | 0.00 | 0.05 | 0.05 | 80 | 1015.0 |
| 20260507195720 | 54 | 347 | 0.9 | 1.7 | 0.00 | 0.05 | 0.05 | 80 | 1015.0 |
| 20260507194934 | 54 | 347 | 1.7 | 1.7 | 0.00 | 0.05 | 0.05 | 80 | 1014.9 |
| 20260507194453 | 54 | 347 | 0.9 | 1.7 | 0.00 | 0.05 | 0.05 | 80 | 1014.9 |
| 20260507194339 | 54 | 347 | 0.9 | 1.7 | 0.00 | 0.05 | 0.05 | 80 | 1014.9 |
| 20260507193641 | 54 | 347 | 0.9 | 2.6 | 0.00 | 0.05 | 0.05 | 80 | 1014.9 |
| 20260507192932 | 54 | 347 | 1.7 | 2.6 | 0.00 | 0.05 | 0.05 | 80 | 1014.9 |
| 20260507192434 | 54 | 347 | 0.9 | 2.6 | 0.00 | 0.05 | 0.05 | 80 | 1014.9 |
| 20260507191932 | 54 | 347 | 0.9 | 1.7 | 0.00 | 0.05 | 0.05 | 80 | 1014.9 |
| 20260507191433 | 54 | 347 | 1.7 | 1.7 | 0.00 | 0.05 | 0.05 | 80 | 1015.0 |
| 20260507191230 | 54 | 347 | 1.7 | 2.6 | 0.00 | 0.05 | 0.05 | 80 | 1015.0 |
| 20260507190533 | 54 | 334 | 0.9 | 2.6 | 0.00 | 0.05 | 0.05 | 80 | 1014.8 |
| 20260507190507 | 54 | 347 | 0.9 | 2.6 | 0.00 | 0.05 | 0.05 | 80 | 1014.8 |
| 20260507185712 | 54 | 334 | 1.7 | 2.6 | 0.00 | 0.05 | 0.05 | 80 | 1014.8 |
| 20260507184935 | 55 | 331 | 0.9 | 2.6 | 0.00 | 0.05 | 0.05 | 80 | 1014.8 |
| 20260507184436 | 55 | 331 | 1.7 | 2.6 | 0.00 | 0.05 | 0.05 | 80 | 1014.8 |
| 20260507183938 | 55 | 337 | 1.7 | 2.6 | 0.00 | 0.05 | 0.05 | 79 | 1014.9 |
| 20260507183434 | 55 | 336 | 1.7 | 2.6 | 0.00 | 0.05 | 0.05 | 79 | 1015.0 |
| 20260507182945 | 55 | 336 | 1.7 | 2.6 | 0.00 | 0.05 | 0.05 | 79 | 1015.0 |
| 20260507182432 | 55 | 326 | 1.7 | 2.6 | 0.00 | 0.05 | 0.05 | 79 | 1014.9 |
| 20260507181933 | 55 | 326 | 1.7 | 1.7 | 0.00 | 0.05 | 0.05 | 79 | 1015.0 |
| 20260507181433 | 55 | 326 | 1.7 | 2.6 | 0.00 | 0.05 | 0.05 | 79 | 1014.9 |
| 20260507180933 | 55 | 326 | 0.9 | 2.6 | 0.00 | 0.05 | 0.05 | 79 | 1014.8 |
| 20260507180434 | 55 | 326 | 0.9 | 2.6 | 0.00 | 0.05 | 0.05 | 79 | 1014.9 |
| 20260507175933 | 55 | 327 | 1.7 | 1.7 | 0.00 | 0.05 | 0.05 | 79 | 1015.0 |
| 20260507175716 | 56 | 327 | 1.7 | 1.7 | 0.00 | 0.05 | 0.05 | 79 | 1015.0 |
| 20260507174933 | 55 | 327 | 1.7 | 2.6 | 0.00 | 0.05 | 0.05 | 78 | 1014.9 |
| 20260507174437 | 56 | 327 | 1.7 | 2.6 | 0.00 | 0.05 | 0.05 | 78 | 1015.0 |
| 20260507173934 | 56 | 23 | 1.7 | 2.6 | 0.00 | 0.05 | 0.05 | 78 | 1015.1 |
| 20260507173443 | 56 | 23 | 0.9 | 1.7 | 0.00 | 0.05 | 0.05 | 79 | 1015.0 |
| 20260507172937 | 56 | 23 | 1.7 | 1.7 | 0.00 | 0.05 | 0.05 | 79 | 1014.9 |
| 20260507172433 | 56 | 23 | 1.7 | 1.7 | 0.00 | 0.05 | 0.05 | 78 | 1015.0 |
| 20260507171932 | 56 | 23 | 1.7 | 2.6 | 0.00 | 0.05 | 0.05 | 77 | 1015.0 |
| 20260507171436 | 57 | 273 | 0.9 | 2.6 | 0.00 | 0.05 | 0.05 | 77 | 1015.0 |
| 20260507170945 | 57 | 306 | 0.9 | 2.6 | 0.00 | 0.05 | 0.05 | 77 | 1014.9 |
| 20260507170737 | 57 | 22 | 0.9 | 2.6 | 0.00 | 0.05 | 0.05 | 76 | 1014.9 |
| 20260507170240 | 57 | 274 | 0.9 | 3.5 | 0.00 | 0.05 | 0.05 | 76 | 1014.8 |
| 20260507165952 | 57 | 274 | 0.9 | 3.5 | 0.00 | 0.05 | 0.05 | 76 | 1014.9 |
| 20260507164933 | 57 | 268 | 0.9 | 2.6 | 0.00 | 0.05 | 0.05 | 76 | 1014.7 |
| 20260507164433 | 58 | 267 | 0.9 | 2.6 | 0.00 | 0.05 | 0.05 | 76 | 1014.8 |
| 20260507163937 | 58 | 127 | 0.9 | 1.7 | 0.00 | 0.05 | 0.05 | 76 | 1014.8 |
| 20260507163432 | 58 | 127 | 0.9 | 3.5 | 0.00 | 0.05 | 0.05 | 76 | 1014.9 |
| 20260507162933 | 58 | 127 | 0.9 | 3.5 | 0.00 | 0.05 | 0.05 | 75 | 1014.8 |
| 20260507162436 | 58 | 137 | 0.9 | 3.5 | 0.00 | 0.05 | 0.05 | 76 | 1014.8 |
| 20260507161932 | 58 | 129 | 0.9 | 4.3 | 0.00 | 0.05 | 0.05 | 76 | 1014.8 |
| 20260507161433 | 58 | 182 | 0.9 | 4.3 | 0.00 | 0.05 | 0.05 | 75 | 1014.8 |
| 20260507160932 | 58 | 232 | 1.7 | 2.6 | 0.00 | 0.05 | 0.05 | 75 | 1014.9 |
| 20260507160433 | 58 | 178 | 1.7 | 3.5 | 0.00 | 0.05 | 0.05 | 75 | 1014.9 |
| 20260507155934 | 59 | 75 | 0.9 | 3.5 | 0.00 | 0.05 | 0.05 | 75 | 1014.9 |
| 20260507155747 | 59 | 172 | 1.7 | 6.1 | 0.00 | 0.05 | 0.05 | 74 | 1014.9 |
| 20260507155743 | 59 | 86 | 1.7 | 6.1 | 0.00 | 0.05 | 0.05 | 74 | 1014.9 |
| 20260507154711 | 59 | 144 | 1.7 | 6.1 | 0.00 | 0.05 | 0.05 | 75 | 1015.0 |
| 20260507153923 | 59 | 154 | 0.9 | 6.1 | 0.00 | 0.05 | 0.05 | 75 | 1015.1 |
| 20260507153456 | 58 | 162 | 2.6 | 7.0 | 0.00 | 0.05 | 0.05 | 73 | 1015.0 |
| 20260507153441 | 58 | 156 | 1.7 | 7.0 | 0.00 | 0.05 | 0.05 | 74 | 1015.0 |
| 20260507152412 | 58 | 119 | 1.7 | 7.0 | 0.00 | 0.05 | 0.05 | 76 | 1014.9 |
| 20260507151912 | 58 | 125 | 0.9 | 2.6 | 0.00 | 0.05 | 0.05 | 76 | 1015.0 |
| 20260507151413 | 58 | 141 | 0.9 | 5.2 | 0.00 | 0.05 | 0.05 | 76 | 1015.0 |
| 20260507150911 | 58 | 193 | 1.7 | 6.1 | 0.00 | 0.05 | 0.05 | 77 | 1015.0 |
| 20260507150451 | 58 | 184 | 1.7 | 6.1 | 0.00 | 0.05 | 0.05 | 76 | 1014.9 |
| 20260507150428 | 58 | 152 | 1.7 | 6.1 | 0.00 | 0.05 | 0.05 | 76 | 1014.9 |
| 20260507145412 | 59 | 213 | 1.7 | 6.1 | 0.00 | 0.05 | 0.05 | 76 | 1015.0 |
| 20260507144914 | 59 | 208 | 1.7 | 5.2 | 0.00 | 0.05 | 0.05 | 76 | 1015.0 |
| 20260507144413 | 59 | 119 | 1.7 | 3.5 | 0.00 | 0.05 | 0.05 | 77 | 1015.0 |
| 20260507143912 | 58 | 235 | 1.7 | 7.0 | 0.00 | 0.05 | 0.05 | 76 | 1015.1 |
| 20260507143647 | 58 | 168 | 2.6 | 7.0 | 0.00 | 0.05 | 0.05 | 76 | 1015.1 |
| 20260507142909 | 58 | 122 | 1.7 | 6.1 | 0.00 | 0.05 | 0.05 | 77 | 1015.1 |
| 20260507142406 | 58 | 97 | 2.6 | 7.0 | 0.00 | 0.05 | 0.05 | 77 | 1015.2 |
| 20260507141911 | 58 | 165 | 2.6 | 7.0 | 0.00 | 0.05 | 0.05 | 77 | 1015.3 |
| 20260507141404 | 58 | 93 | 1.7 | 3.5 | 0.00 | 0.05 | 0.05 | 77 | 1015.2 |
| 20260507141154 | 58 | 166 | 1.7 | 5.2 | 0.00 | 0.05 | 0.05 | 77 | 1015.2 |
| 20260507140654 | 58 | 166 | 1.7 | 8.7 | 0.00 | 0.05 | 0.05 | 77 | 1015.3 |
| 20260507135907 | 58 | 139 | 1.7 | 8.7 | 0.00 | 0.05 | 0.05 | 76 | 1015.3 |
| 20260507135404 | 58 | 160 | 1.7 | 6.1 | 0.00 | 0.05 | 0.05 | 77 | 1015.3 |
| 20260507134905 | 58 | 133 | 1.7 | 6.1 | 0.00 | 0.05 | 0.05 | 76 | 1015.4 |
| 20260507134657 | 58 | 241 | 2.6 | 7.0 | 0.00 | 0.05 | 0.05 | 76 | 1015.3 |
| 20260507133907 | 58 | 101 | 2.6 | 7.8 | 0.00 | 0.05 | 0.05 | 77 | 1015.3 |
| 20260507133452 | 58 | 104 | 1.7 | 6.1 | 0.00 | 0.05 | 0.05 | 77 | 1015.4 |
| 20260507133434 | 58 | 62 | 2.6 | 7.8 | 0.00 | 0.05 | 0.05 | 77 | 1015.3 |
| 20260507132650 | 58 | 70 | 1.7 | 6.1 | 0.00 | 0.05 | 0.05 | 77 | 1015.4 |
| 20260507131906 | 58 | 209 | 1.7 | 6.1 | 0.00 | 0.05 | 0.05 | 77 | 1015.3 |
| 20260507131645 | 58 | 276 | 1.7 | 6.1 | 0.00 | 0.05 | 0.05 | 77 | 1015.3 |
| 20260507130904 | 58 | 106 | 2.6 | 6.1 | 0.00 | 0.05 | 0.05 | 77 | 1015.3 |
| 20260507130406 | 58 | 143 | 1.7 | 6.1 | 0.00 | 0.05 | 0.05 | 77 | 1015.3 |
| 20260507125906 | 58 | 232 | 2.6 | 7.8 | 0.00 | 0.05 | 0.05 | 77 | 1015.4 |
| 20260507125718 | 58 | 197 | 2.6 | 7.0 | 0.00 | 0.05 | 0.05 | 76 | 1015.4 |
| 20260507125714 | 58 | 42 | 2.6 | 7.8 | 0.00 | 0.05 | 0.05 | 77 | 1015.4 |
| 20260507124407 | 58 | 207 | 2.6 | 10.4 | 0.00 | 0.05 | 0.05 | 76 | 1015.5 |
| 20260507123907 | 58 | 168 | 3.5 | 10.4 | 0.00 | 0.05 | 0.05 | 76 | 1015.4 |
| 20260507123409 | 58 | 148 | 2.6 | 9.6 | 0.00 | 0.05 | 0.05 | 76 | 1015.4 |
| 20260507122907 | 58 | 140 | 1.7 | 9.6 | 0.00 | 0.05 | 0.05 | 76 | 1015.4 |
| 20260507122647 | 58 | 110 | 1.7 | 6.1 | 0.00 | 0.05 | 0.05 | 76 | 1015.3 |
| 20260507121909 | 58 | 154 | 2.6 | 7.8 | 0.00 | 0.05 | 0.05 | 76 | 1015.3 |
| 20260507121652 | 58 | 170 | 3.5 | 9.6 | 0.00 | 0.05 | 0.05 | 75 | 1015.3 |
| 20260507120905 | 58 | 32 | 2.6 | 9.6 | 0.00 | 0.05 | 0.05 | 75 | 1015.3 |
| 20260507120646 | 58 | 120 | 2.6 | 7.0 | 0.00 | 0.05 | 0.05 | 75 | 1015.3 |
| 20260507115907 | 58 | 236 | 2.6 | 8.7 | 0.00 | 0.05 | 0.05 | 75 | 1015.4 |
| 20260507115405 | 58 | 149 | 3.5 | 8.7 | 0.00 | 0.05 | 0.05 | 75 | 1015.3 |
| 20260507114906 | 58 | 134 | 3.5 | 9.6 | 0.00 | 0.05 | 0.05 | 76 | 1015.4 |
| 20260507114406 | 58 | 99 | 2.6 | 9.6 | 0.00 | 0.05 | 0.05 | 75 | 1015.4 |
| 20260507113905 | 58 | 288 | 2.6 | 8.7 | 0.00 | 0.05 | 0.05 | 75 | 1015.4 |
| 20260507113653 | 59 | 176 | 3.5 | 10.4 | 0.00 | 0.05 | 0.05 | 75 | 1015.4 |
| 20260507112904 | 59 | 66 | 3.5 | 10.4 | 0.00 | 0.05 | 0.05 | 74 | 1015.5 |
| 20260507112405 | 59 | 168 | 2.6 | 8.7 | 0.00 | 0.05 | 0.05 | 74 | 1015.6 |
| 20260507111907 | 59 | 258 | 3.5 | 8.7 | 0.00 | 0.05 | 0.05 | 75 | 1015.5 |
| 20260507111406 | 58 | 200 | 3.5 | 9.6 | 0.00 | 0.05 | 0.05 | 74 | 1015.6 |
| 20260507110908 | 59 | 165 | 3.5 | 9.6 | 0.00 | 0.05 | 0.05 | 74 | 1015.5 |
| 20260507110412 | 59 | 225 | 3.5 | 9.6 | 0.00 | 0.05 | 0.05 | 74 | 1015.5 |
| 20260507105907 | 58 | 71 | 3.5 | 9.6 | 0.00 | 0.05 | 0.05 | 74 | 1015.6 |
| 20260507105405 | 58 | 185 | 3.5 | 9.6 | 0.00 | 0.05 | 0.05 | 75 | 1015.5 |
| 20260507104906 | 58 | 204 | 3.5 | 9.6 | 0.00 | 0.05 | 0.05 | 76 | 1015.4 |
| 20260507104406 | 58 | 135 | 3.5 | 9.6 | 0.00 | 0.05 | 0.05 | 76 | 1015.5 |
| 20260507103907 | 58 | 191 | 3.5 | 9.6 | 0.00 | 0.05 | 0.05 | 76 | 1015.6 |
| 20260507103408 | 58 | 159 | 4.3 | 11.3 | 0.00 | 0.05 | 0.05 | 76 | 1015.6 |
| 20260507102906 | 58 | 103 | 4.3 | 11.3 | 0.00 | 0.05 | 0.05 | 76 | 1015.6 |
| 20260507102406 | 58 | 147 | 4.3 | 13.0 | 0.00 | 0.05 | 0.05 | 76 | 1015.7 |
| 20260507102143 | 58 | 183 | 4.3 | 13.0 | 0.00 | 0.05 | 0.05 | 76 | 1015.6 |
| 20260507101406 | 58 | 102 | 4.3 | 10.4 | 0.00 | 0.05 | 0.05 | 76 | 1015.5 |
| 20260507100910 | 58 | 207 | 4.3 | 10.4 | 0.00 | 0.05 | 0.05 | 75 | 1015.6 |
| 20260507100708 | 58 | 136 | 4.3 | 9.6 | 0.00 | 0.05 | 0.05 | 75 | 1015.7 |
| 20260507095906 | 59 | 192 | 4.3 | 12.2 | 0.00 | 0.05 | 0.05 | 74 | 1015.6 |
| 20260507095403 | 59 | 185 | 3.5 | 12.2 | 0.00 | 0.05 | 0.05 | 73 | 1015.6 |
| 20260507094907 | 59 | 206 | 4.3 | 8.7 | 0.00 | 0.05 | 0.05 | 72 | 1015.6 |
| 20260507094416 | 58 | 191 | 4.3 | 11.3 | 0.00 | 0.05 | 0.05 | 72 | 1015.6 |
| 20260507094149 | 59 | 260 | 3.5 | 11.3 | 0.00 | 0.05 | 0.05 | 73 | 1015.6 |
| 20260507093406 | 59 | 131 | 3.5 | 9.6 | 0.00 | 0.05 | 0.05 | 73 | 1015.7 |
| 20260507093153 | 59 | 171 | 3.5 | 9.6 | 0.00 | 0.05 | 0.05 | 72 | 1015.6 |
| 20260507092405 | 59 | 158 | 3.5 | 8.7 | 0.00 | 0.05 | 0.05 | 72 | 1015.7 |
| 20260507091905 | 59 | 181 | 4.3 | 8.7 | 0.00 | 0.05 | 0.05 | 72 | 1015.7 |
| 20260507091418 | 60 | 97 | 4.3 | 12.2 | 0.00 | 0.05 | 0.05 | 74 | 1015.7 |
| 20260507090903 | 59 | 261 | 4.3 | 12.2 | 0.00 | 0.05 | 0.05 | 74 | 1015.7 |
| 20260507090411 | 59 | 152 | 4.3 | 9.6 | 0.00 | 0.05 | 0.05 | 75 | 1015.6 |
| 20260507085903 | 59 | 152 | 4.3 | 10.4 | 0.00 | 0.05 | 0.05 | 75 | 1015.5 |
| 20260507085404 | 59 | 80 | 3.5 | 10.4 | 0.00 | 0.05 | 0.05 | 74 | 1015.4 |
| 20260507085153 | 59 | 133 | 4.3 | 13.0 | 0.00 | 0.05 | 0.05 | 75 | 1015.5 |
| 20260507084404 | 59 | 221 | 4.3 | 13.0 | 0.00 | 0.05 | 0.05 | 74 | 1015.4 |
| 20260507083906 | 59 | 176 | 4.3 | 10.4 | 0.00 | 0.05 | 0.05 | 75 | 1015.4 |
| 20260507083406 | 59 | 244 | 4.3 | 8.7 | 0.00 | 0.05 | 0.05 | 76 | 1015.3 |